DateTimeUTC,F1_A11,F1_S11,BsB_S11,BsG_S11,BsR_S11,BbsB_S11,BbsG_S11,BbsR_S11,BaB_A11,BaG_A11,BaR_A11,Tu_S11,T_S11,Uu_S11,U_S11,P_S11,T1_A11
2021-07-09T15:00:00Z,00000200,20000000,,,,,,,-000.14,0000.09,0000.23,18.4,25.1,02.6,01.7,0669.9,31.0
2021-07-09T15:01:00Z,00000200,20000000,,,,,,,-000.03,0000.05,-000.24,18.4,25.1,02.6,01.7,0669.9,31.0
2021-07-09T15:02:00Z,00000200,20000000,,,,,,,-000.15,-000.31,-000.14,18.4,25.1,02.3,01.5,0669.9,31.0
2021-07-09T15:03:00Z,00000200,60000000,,,,,,,0000.10,0000.31,-000.07,18.4,25.1,02.3,01.5,0669.9,31.1
2021-07-09T15:04:00Z,00000200,40000000,0000.86,0000.31,0000.24,0000.27,0000.24,0000.34,0000.35,0000.03,-000.03,18.6,25.0,02.3,01.5,0670.9,31.0
2021-07-09T15:05:00Z,00000200,00000000,0000.52,0000.14,0000.04,0000.50,0000.17,0000.05,-000.16,0000.28,0000.29,18.6,24.9,02.5,01.7,0671.0,31.0
2021-07-09T15:06:00Z,00000200,00000000,0000.65,0000.19,0000.35,0000.09,0000.05,0000.16,0000.26,-000.21,0000.04,18.7,25.0,02.4,01.7,0671.0,31.1
2021-07-09T15:07:00Z,00000200,00000000,-000.39,0000.18,-000.04,0000.59,0000.02,0000.24,-000.05,0000.24,0000.00,18.7,25.0,02.6,01.8,0671.0,31.1
2021-07-09T15:08:00Z,00000200,00000000,0000.38,0000.21,-000.00,0000.02,-000.07,0000.12,0000.04,-000.39,0000.02,18.7,25.0,02.7,01.8,0670.9,31.1
2021-07-09T15:09:00Z,00000200,00000000,0000.20,0000.04,0000.15,0000.08,-000.12,-000.26,-000.20,0000.42,0000.40,18.7,25.0,02.6,01.8,0671.0,31.1
2021-07-09T15:10:00Z,00000200,00010000,0001.04,0000.04,-000.18,0000.12,0000.06,-000.13,0000.23,0000.09,-000.33,18.7,25.0,02.6,01.8,0671.0,31.1
2021-07-09T15:11:00Z,00000200,00000000,0000.40,0000.14,0000.18,0000.80,0000.05,-000.06,-000.06,-000.31,0000.01,18.7,25.0,02.8,01.9,0671.0,31.1
2021-07-09T15:12:00Z,00000200,00000000,0000.52,0000.04,-000.31,-000.12,-000.10,0000.00,-000.00,0000.33,0000.18,18.7,25.0,02.5,01.7,0671.0,31.1
2021-07-09T15:13:00Z,00000200,00000000,0000.64,-000.11,0000.13,-000.21,-000.05,-000.02,0000.05,-000.17,-000.19,18.7,25.0,02.6,01.8,0670.9,31.1
2021-07-09T15:14:00Z,00000200,00000000,0000.60,0000.18,0000.33,0000.15,-000.07,-000.21,0000.03,0000.15,0000.22,18.7,25.0,02.5,01.7,0671.0,31.1
2021-07-09T15:15:00Z,00000200,00000000,0000.69,-000.05,-000.05,-000.33,0000.06,0000.11,0000.18,-000.20,-000.33,18.8,25.0,02.6,01.8,0670.9,31.1
2021-07-09T15:16:00Z,00000200,00000000,0000.69,0000.15,0000.03,-000.25,-000.28,-000.12,-000.38,0000.09,0000.48,18.7,25.0,02.5,01.7,0670.9,31.1
2021-07-09T15:17:00Z,00000200,00000000,0000.62,-000.20,0000.01,-000.20,0000.19,0000.10,0000.35,0000.44,-000.07,18.7,25.0,02.4,01.6,0670.9,31.1
2021-07-09T15:18:00Z,00000200,00000000,0000.44,0000.00,0000.04,-000.29,-000.13,-000.24,0000.02,-000.05,0000.33,18.7,25.0,02.4,01.7,0670.9,31.1
2021-07-09T15:19:00Z,00000200,00000000,0000.21,0000.16,0000.35,0000.50,0000.05,0000.17,0000.30,0000.31,-000.20,18.7,25.0,02.6,01.8,0670.9,31.1
2021-07-09T15:20:00Z,00000200,00000000,0000.77,0000.15,0000.06,-000.23,0000.29,0000.00,0000.15,-000.08,0000.34,18.7,25.0,02.5,01.7,0671.0,31.1
2021-07-09T15:21:00Z,00000200,00000000,-000.11,-000.01,0000.31,0000.33,0000.14,-000.03,-000.04,-000.04,-000.05,18.7,25.0,02.7,01.8,0671.0,31.1
2021-07-09T15:22:00Z,00000200,00000000,0000.87,-000.15,0000.23,0000.40,0000.33,0000.01,0000.13,0000.10,-000.07,18.8,25.0,02.6,01.8,0670.9,31.1
2021-07-09T15:23:00Z,00000200,00000000,0001.04,-000.12,0000.07,-000.48,0000.02,-000.05,0000.16,-000.00,0000.15,18.7,25.0,02.5,01.7,0671.0,31.1
2021-07-09T15:24:00Z,00000200,00000000,0000.66,-000.02,-000.30,-000.19,-000.11,-000.06,-000.25,0000.05,-000.30,18.7,25.0,02.7,01.8,0671.0,31.1
2021-07-09T15:25:00Z,00000200,00000000,0000.45,0000.36,-000.06,0000.38,0000.21,0000.06,0000.26,-000.18,0000.22,18.7,25.0,02.6,01.8,0671.0,31.0
2021-07-09T15:26:00Z,00000200,00000000,0000.60,-000.11,-000.04,0000.74,0000.25,-000.13,-000.01,0000.05,-000.22,18.8,25.0,02.5,01.7,0671.0,31.1
2021-07-09T15:27:00Z,00000200,00000000,0000.70,-000.11,0000.10,0000.26,0000.09,0000.12,-000.01,0000.45,0000.48,18.8,25.0,02.6,01.8,0671.0,31.1
2021-07-09T15:28:00Z,00000200,00000000,0000.57,-000.09,-000.09,0000.64,-000.08,-000.02,0000.33,0000.03,0000.19,18.8,25.0,02.7,01.8,0671.0,31.1
2021-07-09T15:29:00Z,00000200,00000000,-000.02,0000.20,0000.33,-000.29,0000.12,-000.19,-000.01,-000.08,-000.14,18.8,25.0,02.6,01.8,0670.9,31.1
2021-07-09T15:30:00Z,00000200,00000000,0000.57,0000.15,0000.10,0000.04,0000.09,0000.07,0000.19,0000.10,-000.02,18.8,25.0,02.6,01.8,0671.0,31.1
2021-07-09T15:31:00Z,00000200,00000000,0000.72,0000.07,0000.19,-000.32,0000.02,-000.17,0000.10,0000.20,0000.06,18.8,25.0,02.8,01.9,0671.0,31.1
2021-07-09T15:32:00Z,00000200,00000000,0000.49,0000.22,-000.17,0000.01,-000.02,0000.13,-000.10,-000.12,-000.24,18.8,25.0,02.7,01.8,0670.9,31.1
2021-07-09T15:33:00Z,00000200,00000000,0000.27,0000.17,0000.00,0000.23,0000.14,0000.06,-000.16,0000.12,0000.57,18.8,25.0,02.6,01.8,0671.0,31.1
2021-07-09T15:34:00Z,00000200,00000000,0000.38,0000.09,0000.26,0000.25,0000.44,0000.08,0000.21,0000.12,-000.34,18.8,25.1,02.7,01.9,0671.0,31.1
2021-07-09T15:35:00Z,00000200,00000000,0000.93,0000.20,-000.15,-000.00,-000.00,0000.01,0000.06,-000.14,0000.15,18.8,25.0,02.7,01.9,0671.0,31.1
2021-07-09T15:36:00Z,00000200,00000000,0000.65,-000.08,0000.55,0000.20,-000.06,0000.10,0000.40,0000.32,0000.17,18.8,25.0,02.7,01.8,0671.0,31.1
2021-07-09T15:37:00Z,00000200,00000000,0000.98,0000.30,-000.08,0000.69,0000.28,0000.34,-000.41,-000.53,-000.05,18.8,25.1,02.8,01.9,0671.0,31.1
2021-07-09T15:38:00Z,00000200,00000000,0000.73,0000.02,-000.07,0000.08,-000.01,-000.11,0000.27,0000.47,0000.11,18.8,25.1,02.7,01.8,0671.1,31.1
2021-07-09T15:39:00Z,00000200,00000000,0000.17,0000.07,-000.08,0000.74,0000.20,-000.18,-000.21,-000.10,-000.16,18.8,25.1,02.8,01.9,0671.0,31.1
2021-07-09T15:40:00Z,00000200,00000000,0000.33,-000.07,0000.23,0000.01,0000.12,0000.03,0000.15,-000.03,0000.28,18.8,25.0,02.6,01.8,0671.0,31.1
2021-07-09T15:41:00Z,00000200,00000000,0000.82,0000.20,0000.04,-000.22,0000.21,0000.08,0000.00,0000.37,0000.31,18.8,25.1,02.8,01.9,0671.1,31.1
2021-07-09T15:42:00Z,00000200,00000000,0000.36,-000.03,0000.11,-000.42,0000.11,0000.22,0000.23,-000.03,-000.25,18.8,25.0,02.8,01.9,0671.0,31.1
2021-07-09T15:43:00Z,00000200,00000000,0000.70,0000.23,-000.09,0000.18,-000.04,-000.14,0000.24,0000.08,0000.01,18.8,25.1,02.7,01.9,0671.1,31.0
2021-07-09T15:44:00Z,00000200,00000000,0000.91,-000.11,0000.13,-000.02,0000.03,-000.15,-000.05,-000.10,-000.11,18.8,25.0,02.8,01.9,0671.1,31.1
2021-07-09T15:45:00Z,00000200,00000000,0001.16,-000.16,0000.07,-000.00,0000.00,0000.14,-000.05,0000.02,0000.24,18.8,25.1,02.8,01.9,0671.1,31.1
2021-07-09T15:46:00Z,00000200,00000000,0000.73,0000.21,-000.03,0000.41,0000.39,-000.18,0000.05,-000.00,-000.20,18.8,25.1,02.7,01.9,0671.1,31.1
2021-07-09T15:47:00Z,00000200,00000000,0000.51,0000.28,0000.32,0000.16,-000.03,0000.08,0000.20,0000.42,0000.19,18.8,25.1,02.8,01.9,0671.1,31.0
2021-07-09T15:48:00Z,00000200,00000000,0001.03,0000.21,0000.16,0000.27,-000.05,0000.19,-000.22,-000.21,0000.12,18.8,25.1,02.8,01.9,0671.2,31.1
2021-07-09T15:49:00Z,00000200,00000000,0000.68,0000.46,0000.32,0000.40,0000.01,-000.11,0000.09,-000.11,0000.05,18.8,25.1,02.7,01.8,0671.1,31.1
2021-07-09T15:50:00Z,00000200,00000000,0000.88,-000.03,0000.23,-000.08,-000.00,-000.19,0000.39,0000.53,0000.05,18.8,25.1,02.8,01.9,0671.2,31.1
2021-07-09T15:51:00Z,00000200,00000000,0000.88,-000.01,0000.14,0000.13,0000.33,-000.10,-000.04,-000.34,-000.08,18.8,25.1,03.0,02.0,0671.2,31.1
2021-07-09T15:52:00Z,00000200,00000000,0000.74,0000.21,-000.03,0000.03,0000.06,-000.07,-000.04,0000.13,-000.20,18.8,25.1,02.9,02.0,0671.2,31.1
2021-07-09T15:53:00Z,00000200,00000000,0000.46,0000.41,0000.06,0000.21,0000.06,-000.13,-000.18,0000.01,0000.09,18.8,25.1,02.8,01.9,0671.2,31.1
2021-07-09T15:54:00Z,00000200,00000000,0000.42,-000.07,-000.22,-000.00,-000.12,-000.24,0000.04,-000.20,-000.07,18.8,25.1,02.8,01.9,0671.2,31.1
2021-07-09T15:55:00Z,00000200,00000000,0000.84,0000.11,0000.12,0000.23,0000.03,0000.04,-000.38,-000.23,0000.10,18.8,25.1,02.8,01.9,0671.2,31.1
2021-07-09T15:56:00Z,00000200,00000000,0000.57,-000.43,0000.21,-000.21,0000.05,0000.12,0000.39,0000.54,0000.04,18.8,25.1,02.7,01.8,0671.2,31.1
2021-07-09T15:57:00Z,00000200,40000000,,,,,,,-000.03,-000.26,0000.03,18.8,25.1,03.2,02.2,0671.2,31.1
2021-07-09T15:58:00Z,00000200,60000000,,,,,,,0000.31,0000.55,0000.41,18.6,25.2,02.6,01.7,0670.3,31.1
2021-07-09T15:59:00Z,00000200,20000000,,,,,,,-000.08,-000.38,-000.54,18.6,25.3,02.6,01.7,0670.3,31.1
